This is the latest recevied weather packets stored in our database for station/object KF4PPJ. If no packets are shown the sender has not sent any weather packets the latest 10 day(s).
| Time | Temp. | Humidity | Pressure | Rain* | Wind** | Luminosity | Snow |
|---|---|---|---|---|---|---|---|
| 1777650674 | 13.89° C | 80% | 1020 hPa | 0 mm | - | 106 W/m² | - |
| 1777650371 | 13.89° C | 81% | 1020.1 hPa | 0 mm | - | 97 W/m² | - |
| 1777650068 | 13.33° C | 83% | 1020.1 hPa | 0 mm | - | 92 W/m² | - |
| 1777649765 | 12.78° C | 84% | 1019.9 hPa | 0 mm | - | 88 W/m² | - |
| 1777649462 | 12.78° C | 85% | 1020 hPa | 0 mm | - | 81 W/m² | - |
| 1777649158 | 12.78° C | 88% | 1020.1 hPa | 0 mm | - | 76 W/m² | - |
| 1777648855 | 12.78° C | 91% | 1020.1 hPa | 0 mm | - | 73 W/m² | - |
| 1777648552 | 12.78° C | 94% | 1020 hPa | 0 mm | - | 71 W/m² | - |
| 1777648249 | 12.78° C | 96% | 1020.2 hPa | 0 mm | - | 66 W/m² | - |
| 1777647944 | 11.67° C | 97% | 1020.1 hPa | 0 mm | - | 63 W/m² | - |
| 1777647642 | 11.67° C | 97% | 1020 hPa | 0 mm | - | 60 W/m² | - |
| 1777647338 | 11.11° C | 97% | 1020 hPa | 0 mm | - | 56 W/m² | - |
| 1777647036 | 10.56° C | 97% | 1020.1 hPa | 0 mm | - | 55 W/m² | - |
| 1777646732 | 10.56° C | 97% | 1020 hPa | 0 mm | - | 53 W/m² | - |
| 1777646427 | 10° C | 97% | 1020 hPa | 0 mm | - | 51 W/m² | - |
| 1777646124 | 9.44° C | 97% | 1019.9 hPa | 0 mm | - | 48 W/m² | - |
| 1777645821 | 9.44° C | 97% | 1019.9 hPa | 0 mm | - | 44 W/m² | - |
| 1777645518 | 9.44° C | 97% | 1020 hPa | 0 mm | - | 38 W/m² | - |
| 1777645214 | 8.89° C | 97% | 1019.8 hPa | 0 mm | - | 34 W/m² | - |
| 1777644910 | 8.89° C | 97% | 1019.7 hPa | 0 mm | - | 32 W/m² | - |
| 1777644608 | 8.89° C | 97% | 1019.7 hPa | 0 mm | - | 29 W/m² | - |
| 1777644303 | 8.89° C | 97% | 1019.6 hPa | 0 mm | - | 28 W/m² | - |
| 1777643999 | 8.89° C | 97% | 1019.5 hPa | 0 mm | - | 26 W/m² | - |
| 1777643696 | 8.89° C | 97% | 1019.3 hPa | 0 mm | - | 24 W/m² | - |
| 1777643394 | 8.89° C | 97% | 1019.5 hPa | 0 mm | - | 23 W/m² | - |
* Rain latest hour (hover to see other rain measurements)
** Current wind speed in m/s (hover to see current wind gust speed)